CZ-4 DEB, 26444

Orbit data source: Space-Track

CZ-4 DEB, 26444 is space debris in SSO originally from a launch on Thu, 14 Oct 1999 UTC launched from the Taiyaun Space Center, China (TSC). Debris objects in space refer to the collection of defunct objects orbiting the Earth. Examples of debris include non-operational satellites, rocket bodies, and fragments generated from explosions, collisions, or faulty payload assembly.

Loading next visibility...
Identifier
26444, 1999-057KR
Orbit
SSO
Country
Flag of CNCN / PRC
Related business
Manufacturer
Unknown
Mission
Spacecraft
Bus & Motor
Unknown
Mass
Unknown
Launch date (UTC)
1999-10-14 (26 years ago)
Launch vehicle
Unknown
Launch site
Taiyaun Space Center, China (TSC)
Object type
Payload
Rocket body
Debris
Shape & HBR
Unknown shape, 0.1 m
Radar Cross Section
Small (<0.1 m²)

Expand to show TLE details & history
Last TLE update: 1 day ago

TLE from 1 day ago
0 CZ-4 DEB
1 26444U 99057KR  25304.67364846  .00002733  00000-0  47743-3 0  9991
2 26444  98.5447  14.6607 0069694  55.3494  96.3253 14.67236121355539
Epoch: 2025-10-31T16:10Z
TLE epoch observation values (Epoch: 2025-10-31T16:10:03.226Z)
Latitude
27.24204°
Longitude
-83.65475°
Altitude
679.039 km
Speed
7.517 km/s
True Right ascension
13h 16m 17s
True Declination
27° 06' 03"
Sunlit
Object was in daylight at epoch
Visualization orbit readout
Latitude
Unknown
Longitude
Unknown
Altitude
Unknown
Speed
Unknown
Apparent Right ascension
Unknown
Apparent Declination
Unknown
Sunlit
N/A
Visualization observer readout
Local Sidereal Time
14:34:03
Azimuth
Unknown
Elevation
Unknown
Doppler factor
Unknown
Orbital elements
Apogee altitude
716.093 km
Perigee altitude
617.893 km
Semi-major axis
7,045.13 km
Eccentricity
0.00697
Inclination
98.5447°
RAAN
14.6607°
Arg. of periapsis
55.3494°
True anomaly
97.11829°
Mean anomaly
96.3253°
Eccentric anomaly
96.72187°
Mean motion
3.67037 °/min
Orbital period
98.08 mins
BSTAR
0.00047743
Loading maneuver chart data...
Computing Atmospheric mass density...
Loading historical data...
Loading historical data...
Loading historical data...
Loading historical data...
Loading historical data...
Loading historical data...
Loading historical data...

Documentation

Showing up to 5 results
|